Weather History for Willmar, MN

Change the Weather History Date:

Thursday, November 1, 2012

  Actual Average (KLJF) Record (KLJF)
Temperature  
Mean Temperature 37 °F -  
Max Temperature 44 °F 50 °F 71 °F (1990)
Min Temperature 30 °F 32 °F 10 °F (1951)
Degree Days  
Heating Degree Days 28    
Moisture  
Dew Point 27 °F    
Average Humidity 60    
Maximum Humidity 87    
Minimum Humidity 37    
Precipitation  
Precipitation 0.00 in - - ()
Sea Level Pressure  
Sea Level Pressure 30.03 in    
Wind  
Wind Speed 9 mph (North)    
Max Wind Speed 17 mph    
Max Gust Speed 23 mph    
Visibility 10 miles    
Events      
Averages and records for this station are not official NWS values.
T = Trace of Precipitation, MM = Missing Value Source: NWS Daily Summary

Daily Weather History Graph

Daily Weather History Graph

Search for Another Location

Airport:

Trip Planner

Search our weather history database for the weather conditions in past years. The results will help you decide how hot, cold, wet, or windy it might be!

Date:

Astronomy

Nov. 01, 2012 Rise Set
Actual Time 7:59 AM CDT 6:07 PM CDT
Civil Twilight 7:29 AM CDT 6:38 PM CDT
Nautical Twilight 6:54 AM CDT 7:13 PM CDT
Astronomical Twilight 6:20 AM CDT 7:47 PM CDT
Moon 7:59 PM CDT (11/1) 10:39 AM CDT (11/1)
Length of Visible Light 11h 09m
Length of Day
10h 07m
Waning Gibbous, 93% of the Moon is Illuminated
Nov 1
Waning Gibbous
Nov 6
Last Quarter
Nov 13
New
Nov 20
First Quarter
Nov 28
Full

Hourly Weather History & Observations

Time (CDT) Temp. Windchill Dew Point Humidity Pressure Visibility Wind Dir Wind Speed Gust Speed Precip Events Conditions
12:16 AM 44.6 °F - 37.4 °F 76% 29.95 in 10.0 mi Calm Calm - N/A   Overcast
12:35 AM 44.6 °F 42.2 °F 35.6 °F 71% 29.95 in 10.0 mi NW 4.6 mph - N/A   Overcast
12:55 AM 44.6 °F 40.7 °F 35.6 °F 71% 29.96 in 10.0 mi WNW 6.9 mph - N/A   Overcast
1:16 AM 44.6 °F 40.7 °F 35.6 °F 71% 29.96 in 10.0 mi NW 6.9 mph - N/A   Overcast
1:35 AM 44.6 °F 40.2 °F 37.4 °F 76% 29.97 in 10.0 mi NW 8.1 mph - N/A   Overcast
2:16 AM 44.6 °F 39.7 °F 37.4 °F 76% 29.98 in 10.0 mi NW 9.2 mph - N/A   Overcast
2:35 AM 44.6 °F 38.8 °F 37.4 °F 76% 29.98 in 10.0 mi NNW 11.5 mph - N/A   Mostly Cloudy
2:55 AM 44.6 °F 38.8 °F 37.4 °F 76% 29.98 in 10.0 mi NNW 11.5 mph - N/A   Scattered Clouds
3:16 AM 42.8 °F 35.4 °F 35.6 °F 76% 29.99 in 10.0 mi NNW 15.0 mph - N/A   Scattered Clouds
3:35 AM 42.8 °F 37.5 °F 35.6 °F 76% 29.99 in 10.0 mi NW 9.2 mph - N/A   Clear
3:55 AM 41.0 °F 35.2 °F 35.6 °F 81% 29.99 in 7.0 mi NW 9.2 mph - N/A   Clear
4:15 AM 41.0 °F 35.2 °F 37.4 °F 87% 29.99 in 7.0 mi NW 9.2 mph - N/A   Mostly Cloudy
4:35 AM 42.8 °F 36.6 °F 37.4 °F 81% 29.99 in 7.0 mi NNW 11.5 mph - N/A   Overcast
5:15 AM 42.8 °F 35.4 °F 35.6 °F 76% 30.00 in 10.0 mi NNW 15.0 mph - N/A   Overcast
5:35 AM 42.8 °F 38.0 °F 35.6 °F 76% 30.01 in 10.0 mi NNW 8.1 mph - N/A   Overcast
5:55 AM 42.8 °F 35.8 °F 33.8 °F 70% 30.01 in 10.0 mi North 13.8 mph 18.4 mph N/A   Overcast
6:15 AM 42.8 °F 37.0 °F 33.8 °F 70% 30.02 in 10.0 mi NNW 10.4 mph 17.3 mph N/A   Overcast
6:35 AM 42.8 °F 35.1 °F 32.0 °F 66% 30.02 in 10.0 mi NNW 16.1 mph - N/A   Overcast
6:55 AM 42.8 °F 36.2 °F 30.2 °F 61% 30.03 in 10.0 mi NNW 12.7 mph - N/A   Overcast
7:15 AM 42.8 °F 35.8 °F 30.2 °F 61% 30.02 in 10.0 mi NNW 13.8 mph - N/A   Overcast
7:35 AM 41.0 °F 34.7 °F 30.2 °F 65% 30.03 in 10.0 mi NNW 10.4 mph 18.4 mph N/A   Overcast
7:55 AM 41.0 °F 32.8 °F 30.2 °F 65% 30.03 in 10.0 mi NNW 16.1 mph 20.7 mph N/A   Overcast
8:35 AM 39.2 °F 31.2 °F 28.4 °F 65% 30.05 in 10.0 mi North 13.8 mph 23.0 mph N/A   Overcast
9:15 AM 39.2 °F 31.2 °F 28.4 °F 65% 30.05 in 10.0 mi North 13.8 mph - N/A   Mostly Cloudy
9:35 AM 39.2 °F 31.2 °F 28.4 °F 65% 30.05 in 10.0 mi North 13.8 mph - N/A   Mostly Cloudy
10:15 AM 39.2 °F 30.2 °F 28.4 °F 65% 30.06 in 10.0 mi North 17.3 mph - N/A   Mostly Cloudy
10:35 AM 39.2 °F 32.0 °F 26.6 °F 61% 30.05 in 10.0 mi North 11.5 mph - N/A   Scattered Clouds
10:55 AM 41.0 °F 32.8 °F 28.4 °F 61% 30.06 in 10.0 mi NNW 16.1 mph - N/A   Mostly Cloudy
11:15 AM 41.0 °F 32.8 °F 26.6 °F 57% 30.06 in 10.0 mi NNW 16.1 mph - N/A   Scattered Clouds
11:35 AM 41.0 °F 34.3 °F 26.6 °F 57% 30.06 in 10.0 mi NNW 11.5 mph - N/A   Clear
11:56 AM 42.8 °F 37.0 °F 26.6 °F 53% 30.05 in 10.0 mi NNW 10.4 mph - N/A   Clear
12:15 PM 42.8 °F 35.4 °F 24.8 °F 49% 30.05 in 10.0 mi NNW 15.0 mph 18.4 mph N/A   Clear
12:35 PM 42.8 °F 37.0 °F 24.8 °F 49% 30.05 in 10.0 mi North 10.4 mph 17.3 mph N/A   Clear
1:15 PM 44.6 °F 38.1 °F 21.2 °F 39% 30.05 in 10.0 mi North 13.8 mph 21.9 mph N/A   Clear
1:35 PM 42.8 °F 35.8 °F 21.2 °F 42% 30.04 in 10.0 mi NNW 13.8 mph - N/A   Clear
1:56 PM 44.6 °F 38.1 °F 21.2 °F 39% 30.03 in 10.0 mi North 13.8 mph 18.4 mph N/A   Clear
2:15 PM 44.6 °F 37.4 °F 19.4 °F 37% 30.02 in 10.0 mi North 16.1 mph 21.9 mph N/A   Clear
2:35 PM 44.6 °F 38.4 °F 21.2 °F 39% 30.02 in 10.0 mi NNW 12.7 mph 17.3 mph N/A   Clear
2:56 PM 44.6 °F 39.2 °F 21.2 °F 39% 30.02 in 10.0 mi North 10.4 mph 20.7 mph N/A   Clear
3:15 PM 44.6 °F 38.1 °F 19.4 °F 37% 30.02 in 10.0 mi North 13.8 mph 18.4 mph N/A   Clear
3:35 PM 44.6 °F 38.8 °F 19.4 °F 37% 30.01 in 10.0 mi North 11.5 mph 18.4 mph N/A   Clear
3:56 PM 44.6 °F 39.2 °F 21.2 °F 39% 30.02 in 10.0 mi NW 10.4 mph - N/A   Clear
4:15 PM 44.6 °F 39.2 °F 21.2 °F 39% 30.02 in 10.0 mi NNW 10.4 mph - N/A   Clear
4:35 PM 44.6 °F 38.4 °F 19.4 °F 37% 30.02 in 10.0 mi North 12.7 mph 16.1 mph N/A   Clear
4:56 PM 44.6 °F 39.2 °F 19.4 °F 37% 30.02 in 10.0 mi North 10.4 mph - N/A   Clear
5:15 PM 44.6 °F 39.2 °F 21.2 °F 39% 30.03 in 10.0 mi NNW 10.4 mph - N/A   Clear
5:35 PM 42.8 °F 37.5 °F 21.2 °F 42% 30.02 in 10.0 mi North 9.2 mph - N/A   Clear
6:15 PM 39.2 °F 33.0 °F 23.0 °F 52% 30.02 in 10.0 mi North 9.2 mph - N/A   Clear
6:35 PM 39.2 °F 33.6 °F 23.0 °F 52% 30.03 in 10.0 mi NNW 8.1 mph - N/A   Clear
6:56 PM 35.6 °F 29.9 °F 23.0 °F 60% 30.03 in 10.0 mi North 6.9 mph - N/A   Clear
7:15 PM 37.4 °F 31.4 °F 23.0 °F 56% 30.03 in 10.0 mi North 8.1 mph - N/A   Clear
7:35 PM 33.8 °F 27.0 °F 21.2 °F 60% 30.04 in 10.0 mi North 8.1 mph - N/A   Clear
7:56 PM 35.6 °F 29.2 °F 21.2 °F 56% 30.04 in 10.0 mi NNE 8.1 mph - N/A   Clear
8:15 PM 35.6 °F 29.2 °F 21.2 °F 56% 30.05 in 10.0 mi NNE 8.1 mph - N/A   Clear
8:35 PM 33.8 °F 28.6 °F 21.2 °F 60% 30.05 in 10.0 mi NNE 5.8 mph - N/A   Clear
8:56 PM 32.0 °F 25.6 °F 21.2 °F 64% 30.05 in 10.0 mi NNE 6.9 mph - N/A   Clear
9:15 PM 32.0 °F 26.4 °F 21.2 °F 64% 30.06 in 10.0 mi NE 5.8 mph - N/A   Clear
9:35 PM 33.8 °F 26.4 °F 21.2 °F 60% 30.06 in 10.0 mi NE 9.2 mph - N/A   Clear
9:56 PM 33.8 °F 27.7 °F 21.2 °F 60% 30.07 in 10.0 mi NE 6.9 mph - N/A   Clear
10:15 PM 32.0 °F 27.5 °F 21.2 °F 64% 30.06 in 10.0 mi NE 4.6 mph - N/A   Clear
10:35 PM 30.2 °F 23.4 °F 21.2 °F 69% 30.06 in 10.0 mi NE 6.9 mph - N/A   Clear
10:56 PM 30.2 °F 25.4 °F 21.2 °F 69% 30.07 in 10.0 mi NE 4.6 mph - N/A   Clear
11:15 PM 30.2 °F 22.6 °F 21.2 °F 69% 30.07 in 10.0 mi NE 8.1 mph - N/A   Clear
11:35 PM 30.2 °F 23.4 °F 21.2 °F 69% 30.07 in 10.0 mi NNE 6.9 mph - N/A   Clear
11:56 PM 30.2 °F 25.4 °F 21.2 °F 69% 30.08 in 10.0 mi NNE 4.6 mph - N/A   Clear